User: anonymous   Login
Location: Adrasan
(36.3319°N, 30.4314°E)
Time: 12:15:38
(UTC+00:00)
Language:

Lacrosse 4 Rocket - Orbit

View from above orbital plane
View from above orbital plane
View from above satellite
View from above satellite

Ground track
Ground track

The orbit data is extracted from the following two-line orbital elements,

1 26474U 00047B   24114.52470446  .00006144  00000-0  47307-3 0  9997
2 26474  67.9917 156.2269 0043968  87.7198 272.8981 15.01531419289753
Epoch (UTC): 23 April 2024 12:35:34
Eccentricity: 0.0043968
inclination: 67.9917°
perigee height: 531 km
apogee height: 592 km
right ascension of ascending node: 156.2269°
argument of perigee: 87.7198°
revolutions per day: 15.01531419
mean anomaly at epoch: 272.8981°
orbit number at epoch: 28975

The dashed part of the orbit path shows where the satellite is in the earth's shadow,  

DLR